{"data":{"norad_id":53984,"intl_designator":"2022-125W","name":"STARLINK-5142","alt_names":[],"object_type":"PAYLOAD","status":"ACTIVE","operator":null,"country":"US","launch_date":"2022-10-05","launch_site_code":"AFWTR","launch_vehicle":null,"mission":null,"orbit_class":"UNKNOWN","rcs_meters":null,"size_class":null,"mass_kg":null,"dimensions":null,"purposes":["comms"],"wikipedia_slug":null,"has_3d_model":false,"image_url":null,"decayed_at":null,"tle_current":{"epoch":"2026-05-25T05:15:02.862432Z","epoch_age_seconds":66699,"freshness":"FRESH","line1":"1 53984U 22125W   26145.21878313  .00000915  00000+0  75583-4 0  9998","line2":"2 53984  53.2118 230.7218 0001126  89.2675 270.8446 15.08830777201012","mean_motion":15.08830777,"eccentricity":0.0001126,"inclination_deg":53.2118,"raan_deg":230.7218,"arg_perigee_deg":89.2675,"mean_anomaly_deg":270.8446,"bstar":7.5583e-5,"rev_number":20101,"period_min":95.438138057016,"perigee_km":538.99262362286,"apogee_km":540.55053663511,"semimajor_km":6917.908580129,"source":"CELESTRAK","updated_at":"2026-05-25T13:38:17.620828Z"}}}